AO-07 1 07530U 74089B 25182.60188351 -.00000037 00000-0 58153-4 0 9990 2 07530 101.9928 187.1004 0012646 80.5269 32.8686 12.53689953316584 AO-27 1 22825U 93061C 25182.45571372 .00000077 00000-0 46647-4 0 9995 2 22825 98.7357 244.1194 0009273 54.1686 306.0356 14.30805577656848 FO-29 1 24278U 96046B 25182.56259657 -.00000035 00000-0 42841-5 0 9994 2 24278 98.5730 73.5605 0348845 285.7112 70.5810 13.53250109425743 ISS 1 25544U 98067A 25182.83204607 .00005749 00000-0 10743-3 0 9991 2 25544 51.6347 234.4916 0002352 318.4634 41.6176 15.50322094517434 SO-50 1 27607U 02058C 25182.15136359 .00001007 00000-0 14259-3 0 9990 2 27607 64.5520 133.9463 0058756 329.3344 30.4332 14.81675476212429 AO-73 1 39444U 13066AE 25182.85743105 .00005392 00000-0 40267-3 0 9992 2 39444 97.7801 144.8602 0041162 312.6020 47.1735 15.02576456627521 IO-86 1 40931U 15052B 25151.18580175 .00001241 00000-0 78118-4 0 9996 2 40931 6.0006 24.0987 0012733 338.8432 21.1169 14.78805930523047 AO-91 1 43017U 17073E 25182.60255645 .00007434 00000-0 37698-3 0 9998 2 43017 97.5210 52.8164 0173203 91.6153 270.4921 15.05020471412522 PO-101 1 43678U 18084H 25182.82643287 .00001750 00000-0 15196-3 0 9995 2 43678 98.1033 359.8000 0008221 204.2572 155.8263 14.98403400363717 QO-100 1 43700U 18090A 25182.57238781 .00000147 00000-0 00000-0 0 9993 2 43700 0.0197 31.7628 0002189 103.4652 16.4675 1.00271184 24167 JO-97 1 43803U 18099AX 25182.88597051 .00008822 00000-0 39761-3 0 9995 2 43803 97.4647 241.7675 0008860 74.1144 286.1068 15.21240865360163 RS-44 1 44909U 19096E 25182.60071647 .00000004 00000-0 -23049-4 0 9997 2 44909 82.5198 212.6479 0216351 243.9642 113.9042 12.79741536257504 CSS 1 48274U 21035A 25182.66827599 .00019966 00000-0 24738-3 0 9994 2 48274 41.4642 292.7326 0005727 229.8363 130.1974 15.59566939238414 HO-113 1 50466U 21131B 25182.84431844 .00000382 00000-0 13299-3 0 9993 2 50466 98.5108 272.0886 0005343 76.2784 283.8999 14.40835667184652 MO-122 1 60209U 24125G 25182.58750644 .00013825 00000-0 38455-3 0 9995 2 60209 97.2774 33.9659 0019807 62.0382 298.2864 15.36750521 55336 AO-123 1 61781U 24199AY 25182.90404273 .00005380 00000-0 19524-3 0 9995 2 61781 97.3522 50.3667 0017407 116.2521 244.0510 15.28600057 80296 SO-124 1 62690U 25009CK 25182.45689439 .00029170 00000-0 99229-3 0 9998 2 62690 97.4083 263.1956 0002376 51.8583 308.2871 15.30389716 25498 SO-125 1 63492U 25052BN 25182.63256662 .00018213 00000-0 76002-3 0 9995 2 63492 97.4292 76.5063 0009774 304.0261 56.0048 15.23676227 16617 NO-44 1 26931U 01043C 25182.85998975 .00000086 00000-0 63433-4 0 9994 2 26931 67.0513 70.2351 0006157 276.7357 83.3044 14.31743731240450 IO-117 1 53106U 22080B 25119.54530882 -.00000003 00000-0 00000+0 0 9993 2 53106 70.1441 82.5809 0008360 32.9040 327.2139 6.42557753 65597 SONATE-2 1 59112U 24043Q 25182.25251814 .00014296 00000-0 40456-3 0 9991 2 59112 97.5162 313.8770 0011430 43.5816 316.6328 15.36348005 73661